Wasilla, AK

1:12 PM AKDT on June 22, 2017 (GMT -0800)
Wasilla

Weather History for PAWS - May, 2013

Change the Weather History Date:

Wednesday, May 22, 2013

  Actual Average Record
Temperature  
Mean Temperature 45 °F -  
Max Temperature 57 °F 61 °F 74 °F (1964)
Min Temperature 33 °F 37 °F 28 °F (1985)
Degree Days  
Heating Degree Days 20    
Moisture  
Dew Point 29 °F    
Average Humidity 54    
Maximum Humidity 81    
Minimum Humidity 33    
Precipitation  
Precipitation 0.00 in - - ()
Sea Level Pressure  
Sea Level Pressure 30.16 in    
Wind  
Wind Speed 2 mph (WSW)    
Max Wind Speed 10 mph    
Max Gust Speed -    
Visibility 10 miles    
Events      
Averages and records for this station are not official NWS values.
T = Trace of Precipitation, MM = Missing Value Source: NWS Daily Summary

Daily Weather History Graph

Daily Weather History Graph

Search for Another Location

Airport or City:

Trip Planner

Search our weather history database for the weather conditions in past years. The results will help you decide how hot, cold, wet, or windy it might be!

Date:

Astronomy

May. 22, 2013 Rise Set
Actual Time 4:49 AM AKDT 11:01 PM AKDT
Civil Twilight 3:24 AM AKDT 12:28 AM AKDT
Nautical Twilight Sun does not set Sun does not set
Astronomical Twilight Sun does not set Sun does not set
Moon 7:52 PM AKDT 3:56 AM AKDT
Length of Visible Light 21h 03m
Length of Day
18h 11m
Waxing Gibbous, 92% of the Moon is Illuminated
May 22
Waxing Gibbous
May 24
Full
May 31
Last Quarter
Jun 8
New
Jun 16
First Quarter

Hourly Weather History & Observations

Time (AKDT) Temp. Windchill Dew Point Humidity Pressure Visibility Wind Dir Wind Speed Gust Speed Precip Events Conditions
12:16 AM 39.2 °F - 26.6 °F 61% 30.26 in 10.0 mi Calm Calm - N/A   Clear
12:36 AM 37.4 °F - 28.4 °F 70% 30.26 in 10.0 mi Calm Calm - N/A   Clear
12:56 AM 37.4 °F - 28.4 °F 70% 30.26 in 10.0 mi Calm Calm - N/A   Clear
1:16 AM 37.4 °F - 26.6 °F 65% 30.26 in 10.0 mi Calm Calm - N/A   Clear
1:36 AM 35.6 °F 31.7 °F 26.6 °F 70% 30.25 in 10.0 mi NNE 4.6 mph - N/A   Clear
1:56 AM 35.6 °F - 28.4 °F 75% 30.25 in 10.0 mi Calm Calm - N/A   Clear
2:16 AM 35.6 °F - 28.4 °F 75% 30.24 in 10.0 mi Calm Calm - N/A   Clear
2:36 AM 33.8 °F - 26.6 °F 75% 30.24 in 10.0 mi Calm Calm - N/A   Clear
2:56 AM 33.8 °F - 28.4 °F 81% 30.23 in 10.0 mi Calm Calm - N/A   Clear
3:16 AM 33.8 °F - 26.6 °F 75% 30.23 in 10.0 mi Calm Calm - N/A   Clear
3:36 AM 33.8 °F - 28.4 °F 81% 30.23 in 10.0 mi Calm Calm - N/A   Clear
3:56 AM 33.8 °F - 26.6 °F 75% 30.23 in 10.0 mi Calm Calm - N/A   Mostly Cloudy
4:16 AM 33.8 °F - 28.4 °F 81% 30.23 in 10.0 mi Calm Calm - N/A   Overcast
4:36 AM 33.8 °F - 26.6 °F 75% 30.22 in 10.0 mi Calm Calm - N/A   Overcast
4:56 AM 33.8 °F - 28.4 °F 81% 30.21 in 10.0 mi Calm Calm - N/A   Overcast
5:16 AM 33.8 °F - 28.4 °F 81% 30.21 in 10.0 mi Calm Calm - N/A   Overcast
5:36 AM 35.6 °F - 26.6 °F 70% 30.21 in 10.0 mi Calm Calm - N/A   Mostly Cloudy
5:56 AM 37.4 °F 34.9 °F 26.6 °F 65% 30.20 in 10.0 mi East 3.5 mph - N/A   Partly Cloudy
6:16 AM 37.4 °F 33.8 °F 26.6 °F 65% 30.20 in 10.0 mi ENE 4.6 mph - N/A   Clear
6:36 AM 37.4 °F 34.9 °F 26.6 °F 65% 30.20 in 10.0 mi East 3.5 mph - N/A   Clear
6:56 AM 39.2 °F 37.0 °F 26.6 °F 61% 30.19 in 10.0 mi East 3.5 mph - N/A   Clear
7:16 AM 39.2 °F - 26.6 °F 61% 30.18 in 10.0 mi Calm Calm - N/A   Clear
7:36 AM 41.0 °F - 28.4 °F 61% 30.18 in 10.0 mi Calm Calm - N/A   Mostly Cloudy
7:56 AM 44.6 °F 43.1 °F 28.4 °F 53% 30.18 in 10.0 mi East 3.5 mph - N/A   Overcast
8:16 AM 44.6 °F 42.2 °F 28.4 °F 53% 30.18 in 10.0 mi East 4.6 mph - N/A   Overcast
8:36 AM 44.6 °F - 26.6 °F 49% 30.18 in 10.0 mi Calm Calm - N/A   Overcast
8:56 AM 44.6 °F 43.1 °F 26.6 °F 49% 30.18 in 10.0 mi East 3.5 mph - N/A   Overcast
9:16 AM 44.6 °F 41.4 °F 26.6 °F 49% 30.17 in 10.0 mi SE 5.8 mph - N/A   Overcast
9:36 AM 46.4 °F 45.2 °F 24.8 °F 43% 30.17 in 10.0 mi ENE 3.5 mph - N/A   Overcast
9:56 AM 46.4 °F - 26.6 °F 46% 30.16 in 10.0 mi Calm Calm - N/A   Overcast
10:16 AM 48.2 °F - 28.4 °F 46% 30.16 in 10.0 mi WSW 4.6 mph - N/A   Overcast
10:36 AM 50.0 °F - 26.6 °F 40% 30.16 in 10.0 mi West 4.6 mph - N/A   Overcast
10:56 AM 50.0 °F - 26.6 °F 40% 30.16 in 10.0 mi Calm Calm - N/A   Overcast
11:16 AM 51.8 °F - 26.6 °F 38% 30.15 in 10.0 mi West 3.5 mph - N/A   Overcast
11:36 AM 51.8 °F - 30.2 °F 44% 30.15 in 10.0 mi West 3.5 mph - N/A   Overcast
11:56 AM 51.8 °F - 30.2 °F 44% 30.14 in 10.0 mi Calm Calm - N/A   Overcast
12:16 PM 51.8 °F - 28.4 °F 41% 30.14 in 10.0 mi NNW 4.6 mph - N/A   Overcast
12:36 PM 51.8 °F - 28.4 °F 41% 30.14 in 10.0 mi WSW 6.9 mph - N/A   Overcast
12:56 PM 51.8 °F - 26.6 °F 38% 30.14 in 10.0 mi West 5.8 mph - N/A   Overcast
1:16 PM 51.8 °F - 26.6 °F 38% 30.14 in 10.0 mi SW 5.8 mph - N/A   Overcast
1:36 PM 51.8 °F - 28.4 °F 41% 30.13 in 10.0 mi West 4.6 mph - N/A   Overcast
1:56 PM 53.6 °F - 28.4 °F 38% 30.13 in 10.0 mi West 4.6 mph - N/A   Overcast
2:16 PM 51.8 °F - 24.8 °F 35% 30.13 in 10.0 mi NW 4.6 mph - N/A   Overcast
2:36 PM 53.6 °F - 26.6 °F 35% 30.12 in 10.0 mi WNW 4.6 mph - N/A   Overcast
2:56 PM 53.6 °F - 26.6 °F 35% 30.11 in 10.0 mi Calm Calm - N/A   Overcast
3:16 PM 55.4 °F - 26.6 °F 33% 30.11 in 10.0 mi WSW 8.1 mph - N/A   Overcast
3:36 PM 55.4 °F - 26.6 °F 33% 30.10 in 10.0 mi South 8.1 mph - N/A   Overcast
3:56 PM 57.2 °F - 28.4 °F 33% 30.10 in 10.0 mi WNW 3.5 mph - N/A   Overcast
4:16 PM 55.4 °F - 26.6 °F 33% 30.10 in 10.0 mi Calm Calm - N/A   Overcast
4:36 PM 55.4 °F - 30.2 °F 38% 30.10 in 10.0 mi WSW 6.9 mph - N/A   Overcast
4:56 PM 55.4 °F - 30.2 °F 38% 30.09 in 10.0 mi SSW 5.8 mph - N/A   Overcast
5:16 PM 55.4 °F - 30.2 °F 38% 30.09 in 10.0 mi SSW 8.1 mph - N/A   Overcast
5:36 PM 55.4 °F - 30.2 °F 38% 30.09 in 10.0 mi SW 5.8 mph - N/A   Overcast
5:56 PM 55.4 °F - 30.2 °F 38% 30.09 in 10.0 mi WNW 5.8 mph - N/A   Overcast
6:16 PM 55.4 °F - 30.2 °F 38% 30.09 in 10.0 mi West 8.1 mph - N/A   Overcast
6:36 PM 55.4 °F - 30.2 °F 38% 30.09 in 10.0 mi West 8.1 mph - N/A   Overcast
6:56 PM 55.4 °F - 32.0 °F 41% 30.09 in 10.0 mi WSW 9.2 mph - N/A   Overcast
7:16 PM 53.6 °F - 32.0 °F 44% 30.10 in 10.0 mi West 8.1 mph - N/A   Overcast
7:36 PM 53.6 °F - 32.0 °F 44% 30.10 in 10.0 mi WSW 6.9 mph - N/A   Overcast
7:56 PM 51.8 °F - 32.0 °F 47% 30.10 in 10.0 mi WSW 6.9 mph - N/A   Overcast
8:16 PM 51.8 °F - 33.8 °F 50% 30.10 in 10.0 mi West 6.9 mph - N/A   Overcast
8:36 PM 51.8 °F - 33.8 °F 50% 30.11 in 10.0 mi WSW 8.1 mph - N/A   Overcast
8:56 PM 50.0 °F - 33.8 °F 54% 30.11 in 10.0 mi WSW 5.8 mph - N/A   Overcast
9:16 PM 50.0 °F - 33.8 °F 54% 30.11 in 10.0 mi WSW 10.4 mph - N/A   Overcast
9:36 PM 50.0 °F - 33.8 °F 54% 30.11 in 10.0 mi West 8.1 mph - N/A   Overcast
9:56 PM 48.2 °F - 33.8 °F 58% 30.12 in 10.0 mi WSW 5.8 mph - N/A   Overcast
10:16 PM 48.2 °F - 35.6 °F 62% 30.12 in 10.0 mi SSW 3.5 mph - N/A   Overcast
10:36 PM 46.4 °F - 35.6 °F 66% 30.12 in 10.0 mi Calm Calm - N/A   Overcast
10:56 PM 46.4 °F - 35.6 °F 66% 30.12 in 10.0 mi Calm Calm - N/A   Overcast
11:16 PM 46.4 °F 45.2 °F 35.6 °F 66% 30.13 in 10.0 mi South 3.5 mph - N/A   Overcast
11:36 PM 44.6 °F 43.1 °F 35.6 °F 71% 30.13 in 10.0 mi SSW 3.5 mph - N/A   Overcast
11:56 PM 44.6 °F - 35.6 °F 71% 30.13 in 10.0 mi Calm Calm - N/A   Overcast